STARLINK-11702, 63752

Orbit data source: Space-Track

STARLINK-11702, 63752 is a payload satellite owned by SpaceX/Seattle (US) in LEO that was launched on Tue, 29 Apr 2025 UTC via an FALCON 9 launch vehicle from the Air Force Eastern Test Range (AFETR). Payload-class satellites include a variety of spacecraft equipped with specific instruments for various scientific and technological missions. These include communications satellites like Starlink; space stations such as the ISS; scientific satellites like the Hubble; Earth observation satellites from companies like Planet Labs, Umbra, and HawkEye 360; GPS; miniature CubeSats for education and research; and military/defense satellites.

Loading next visibility...
Identifier
63752, 2025-089B
Orbit
LEO
Country
Flag of USUS
Related business
Manufacturer
SpaceX/Seattle
Mission
Operational Commercial Communications
Bus & Motor
STARLINK V2MD, Unknown motor
Mass
960 kg wet, ~910 kg dry
Launch date (UTC)
2025-04-29 (1 year ago)
Launch vehicle
FALCON 9
Launch site
Air Force Eastern Test Range (AFETR)
Object type
Payload
Rocket body
Debris
Shape & HBR
Box + 2 Pan, 18.1 m
Radar Cross Section
36.964 m², Large (>1 m²)

Expand to show TLE details & history
Last TLE update: 21 hours ago

TLE from 21 hours ago
0 STARLINK-11702
1 63752U 25089B   26171.04271885  .00186799  00000-0  14254-2 0  9997
2 63752  43.0008  35.2373 0002015 273.6001  86.4637 15.70862710 66238
Epoch: 2026-06-20T01:01Z
TLE epoch observation values (Epoch: 2026-06-20T01:01:30.908Z)
Latitude
0.00003°
Longitude
111.59553°
Altitude
356.118 km
Speed
7.697 km/s
True Right ascension
02h 20m 56s
True Declination
0° 00' 00"
Sunlit
Object was in daylight at epoch
Visualization orbit readout
Latitude
Unknown
Longitude
Unknown
Altitude
Unknown
Speed
Unknown
Apparent Right ascension
Unknown
Apparent Declination
Unknown
Sunlit
N/A
Visualization observer readout
Local Sidereal Time
08:33:03
Azimuth
Unknown
Elevation
Unknown
Doppler factor
Unknown
Orbital elements
Apogee altitude
359.769 km
Perigee altitude
357.054 km
Semi-major axis
6,736.549 km
Eccentricity
0.0002
Inclination
43.0008°
RAAN
35.2373°
Arg. of periapsis
273.6001°
True anomaly
86.48675°
Mean anomaly
86.4637°
Eccentric anomaly
86.47522°
Mean motion
3.92543 °/min
Orbital period
91.71 mins
BSTAR
0.0014254
Loading maneuver chart data...
Computing Atmospheric mass density...
Loading historical data...
Loading historical data...
Loading historical data...
Loading historical data...
Loading historical data...
Loading historical data...
Loading historical data...

Documentation

Showing up to 5 results
|